[[{"header":{"parameterUnit":"m.s-1","parameterCategory":2,"la1":30.2991,"la2":30.254,"lo1":-89.0895,"lo2":-89.0444,"dy":0.0017,"dx":0.0017,"nx":28,"ny":28,"refTime":"2025-05-25T03:00:00:Z","depth":"0","parameterNumber":2,"parameterNumberName":"U-component_of_CURRENTS"},"data":[0,0,0,0,0,0,0,0,0,0,0,0,0,0,0,0,0,0,0,0,0,0,0,0,0,0,0,0,0,0,0,0,0,0,0,0,0,0,0,0,0,0,0,0,0,0,0,0,0,0,0,0,0,0,0,0,0,0,0.3216,0.3215,0,0.3185,0.3184,0.3184,0.3102,0.31,0.3098,0.3096,0.3096,0.3098,0.31,0,0,0,0,0,0,0,0,0,0,0,0,0,0.3306,0.3305,0.3216,0.3215,0.3215,0.3185,0.3184,0.3184,0.3102,0.31,0.3098,0.3096,0.3096,0.3098,0.31,0,0,0,0,0,0,0,0,0,0,0,0,0,0.3272,0.3304,0.3216,0.3169,0.3164,0.3185,0.3184,0.3184,0.3103,0.31,0.3097,0.3094,0.3095,0.3098,0.31,0.3174,0,0,0.3108,0.311,0,0,0,0,0,0,0,0,0.3274,0.3269,0.3176,0.3172,0.3167,0.3143,0.3216,0.3182,0.3104,0.3128,0.3096,0.3093,0.3116,0.3117,0.3119,0.3174,0.3174,0.3109,0.311,0.3111,0.3112,0,0,0,0,0,0,0,0.3276,0.327,0.3205,0.3176,0.317,0.3184,0.3175,0.321,0.3141,0.3126,0.3119,0.3114,0.3113,0.3117,0.3119,0.3174,0.3109,0.3111,0.3113,0.3114,0.3254,0.3256,0,0,0,0,0,0,0.3274,0.3272,0.3206,0.3204,0.3212,0.3184,0.3175,0.3155,0.3139,0.3133,0.3116,0.311,0.3114,0.3116,0.3118,0.3196,0.3111,0.3114,0.3116,0.3252,0.3255,0.3257,0,0,0,0,0,0,0.3276,0.3268,0.3207,0.3237,0.323,0.3185,0.3164,0.3156,0.315,0.3131,0.3126,0.3117,0.3111,0.3115,0.3138,0.3195,0.3115,0.3118,0.325,0.3253,0.3256,0.3357,0,0,0,0,0,0,0.3279,0.3269,0.3269,0.3236,0.3228,0.3227,0.3166,0.3157,0.315,0.3142,0.3132,0.3128,0.3109,0.3134,0.3141,0.3197,0.312,0.3247,0.3251,0.3255,0.3351,0.3364,0.3374,0,0,0,0,0,0.3282,0.3284,0.3269,0.3262,0.3224,0.3228,0.3227,0.3187,0.3154,0.3168,0.3146,0.3128,0.3164,0.3138,0.3145,0.3204,0.3245,0.325,0.3255,0.3346,0.3361,0.3374,0,0,0,0,0,0,0.3318,0.3275,0.3258,0.3244,0.3244,0.3214,0.3222,0.3199,0.3196,0.3186,0.3156,0.3154,0.3202,0.3189,0.3161,0.3255,0.3204,0.321,0.3271,0.3285,0.3296,0.3282,0.3122,0,0,0,0,0,0.3331,0.332,0.3293,0.3288,0.3287,0.3262,0.3261,0.3241,0.3226,0.322,0.321,0.3209,0.3234,0.3242,0.3261,0.3316,0.3314,0.3358,0.3369,0.3379,0.3372,0.3437,0.3454,0.3273,0.3273,0.3273,0,0,0.3341,0.332,0.3311,0.3297,0.3288,0.3299,0.3254,0.3261,0.3272,0.3228,0.3246,0.3257,0.3258,0.3312,0.3333,0.3303,0.3431,0.3385,0.3394,0.3381,0.3444,0.3462,0.3477,0.3276,0.3276,0.3275,0,0,0.3358,0.3342,0.334,0.3347,0.3345,0.3339,0.3344,0.333,0.3326,0.3354,0.3331,0.3363,0.3389,0.3404,0.3413,0.3503,0.3495,0.3522,0.3566,0.363,0.3646,0.3659,0.3682,0.3697,0.3521,0.3522,0.3522,0,0.3376,0.3357,0.3348,0.3358,0.3365,0.3356,0.3371,0.3383,0.3381,0.3396,0.3367,0.3431,0.3431,0.3504,0.3523,0.3531,0.3551,0.3515,0.3646,0.3659,0.3671,0.3692,0.3706,0.3527,0.3526,0.3526,0.3525,0,0.3384,0.3385,0.3391,0.3394,0.3418,0.3431,0.3445,0.3473,0.3469,0.3476,0.3543,0.3553,0.3584,0.3608,0.3586,0.3687,0.3668,0.366,0.3611,0.3696,0.3711,0.3725,0.3535,0.3533,0.3531,0.353,0,0,0.3366,0.3388,0.3388,0.3398,0.3434,0.3445,0.35,0.3537,0.3564,0.3597,0.3644,0.3695,0.3705,0.3716,0.3727,0.3772,0.3871,0.3751,0.3752,0.3772,0.3997,0.3845,0.3845,0.3898,0.3901,0.3903,0.3974,0,0.3367,0.3387,0.3405,0.3438,0.3451,0.3487,0.3534,0.3583,0.3618,0.3671,0.3718,0.3769,0.3749,0.3777,0.383,0.3866,0.3911,0.385,0.3911,0.3912,0.3767,0.3857,0.3615,0.3646,0.3987,0.3989,0.3991,0,0.3351,0.3371,0.3397,0.3449,0.3458,0.3486,0.356,0.3605,0.3699,0.3732,0.381,0.3844,0.3933,0.3897,0.4008,0.3975,0.399,0.4005,0.4009,0.3835,0.3785,0.3617,0.3658,0.3558,0.4011,0.401,0.4008,0,0.3318,0.3359,0.3376,0.3392,0.3457,0.3484,0.3528,0.3619,0.3672,0.3781,0.3835,0.3939,0.3997,0.4056,0.408,0.4064,0.418,0.4164,0.4042,0.403,0.3814,0.3777,0.3756,0.424,0.424,0.424,0.424,0,0.3294,0.3305,0.3355,0.3362,0.3399,0.3462,0.3518,0.3582,0.3694,0.3765,0.3864,0.3933,0.4044,0.4116,0.4127,0.4118,0.4226,0.4056,0.4048,0.384,0.3806,0.3697,0.3679,0.4243,0.4242,0.4241,0.4241,0,0.3244,0.3272,0.3293,0.3357,0.3377,0.3405,0.3506,0.3556,0.3666,0.3772,0.3816,0.3965,0.4042,0.4116,0.4206,0.4157,0.4032,0.4136,0.3858,0.3813,0.3557,0.3554,0.3401,0.3311,0.4011,0.4008,0.4005,0,0.3211,0.3218,0.3275,0.3296,0.3319,0.3372,0.3416,0.3528,0.3595,0.3767,0.3818,0.394,0.3973,0.404,0.3977,0.3962,0.3916,0.3744,0.3655,0.3511,0.3505,0.3407,0.3339,0.3422,0.3415,0.3409,0.3404,0,0.3165,0.3185,0.3212,0.3253,0.3287,0.3326,0.3399,0.3443,0.3579,0.3649,0.3738,0.3774,0.381,0.3667,0.3643,0.3612,0.352,0.3618,0.3562,0.311,0.2911,0.283,0.34,0.3351,0.3357,0.3361,0.3363,0.3366,0.3131,0.3134,0.3174,0.3197,0.3237,0.3255,0.3235,0.3316,0.3363,0.3403,0.3552,0.3488,0.3431,0.3325,0.3282,0.3036,0.3121,0.2914,0.2947,0.288,0.2701,0.3125,0.3005,0.3008,0.3011,0.3013,0.3016,0,0.3072,0.3085,0.3118,0.3123,0.3108,0.3161,0.3195,0.3139,0.3101,0.3153,0.3162,0.3013,0.2835,0.2781,0.2543,0.239,0.2307,0.2339,0.2172,0.2163,0.2611,0.249,0.2137,0.2137,0.2137,0.2137,0.2137,0.2137,0.3047,0.3034,0.3036,0.2975,0.2971,0.2882,0.2852,0.2792,0.2776,0.2616,0.2481,0.247,0.2447,0.2268,0.2033,0.1975,0.1867,0.1698,0.182,0.2155,0.2212,0.2266,0.2148,0.1729,0.1728,0.1213,0.1209,0.1206]},{"header":{"parameterUnit":"m.s-1","parameterCategory":2,"la1":30.2991,"la2":30.254,"lo1":-89.0895,"lo2":-89.0444,"dy":0.0017,"dx":0.0017,"nx":28,"ny":28,"refTime":"2025-05-25T03:00:00:Z","depth":"0","parameterNumber":3,"parameterNumberName":"V-component_of_CURRENTS"},"data":[0,0,0,0,0,0,0,0,0,0,0,0,0,0,0,0,0,0,0,0,0,0,0,0,0,0,0,0,0,0,0,0,0,0,0,0,0,0,0,0,0,0,0,0,0,0,0,0,0,0,0,0,0,0,0,0,0,0,0.0443,0.0443,0,0.044,0.044,0.044,0.042,0.042,0.0419,0.0419,0.0407,0.0407,0.0407,0,0,0,0,0,0,0,0,0,0,0,0,0,0.0429,0.0429,0.0443,0.0443,0.0443,0.044,0.044,0.044,0.042,0.042,0.0419,0.0419,0.0407,0.0407,0.0407,0,0,0,0,0,0,0,0,0,0,0,0,0,0.0431,0.0429,0.0443,0.0433,0.0432,0.044,0.044,0.044,0.042,0.042,0.0419,0.0419,0.0407,0.0407,0.0407,0.0421,0,0,0.0407,0.0407,0,0,0,0,0,0,0,0,0.0431,0.0431,0.0435,0.0434,0.0433,0.043,0.0431,0.0433,0.0421,0.0424,0.0419,0.0418,0.0415,0.0414,0.0414,0.042,0.0419,0.0407,0.0407,0.0407,0.0407,0,0,0,0,0,0,0,0.0431,0.0431,0.0441,0.0435,0.0434,0.0428,0.0428,0.0431,0.0422,0.0424,0.0423,0.0424,0.0414,0.0414,0.0414,0.0419,0.0407,0.0407,0.0407,0.0407,0.0445,0.0446,0,0,0,0,0,0,0.0433,0.0431,0.0441,0.0441,0.0431,0.0429,0.0429,0.0431,0.0423,0.0421,0.0424,0.0423,0.0414,0.0414,0.0413,0.0454,0.0407,0.0407,0.0407,0.0444,0.0445,0.0446,0,0,0,0,0,0,0.0433,0.0434,0.0441,0.0436,0.0437,0.043,0.0433,0.0432,0.0434,0.0423,0.0421,0.0428,0.0414,0.0413,0.0423,0.0452,0.0407,0.0408,0.0443,0.0444,0.0446,0.0519,0,0,0,0,0,0,0.0432,0.0434,0.044,0.0437,0.0437,0.0455,0.0434,0.0432,0.0435,0.0433,0.0426,0.0424,0.0413,0.0423,0.0423,0.0452,0.0408,0.0442,0.0443,0.0445,0.0516,0.0523,0.0529,0,0,0,0,0,0.0432,0.0447,0.044,0.0442,0.0445,0.0455,0.0456,0.0448,0.0436,0.0445,0.0438,0.0424,0.0434,0.0424,0.0424,0.0453,0.0441,0.0443,0.0445,0.0513,0.0521,0.0529,0,0,0,0,0,0,0.0443,0.0446,0.0439,0.0453,0.0456,0.0452,0.0461,0.0453,0.0455,0.0453,0.0437,0.0435,0.0453,0.0442,0.0431,0.0467,0.0435,0.0437,0.0486,0.0495,0.0501,0.0521,0.0408,0,0,0,0,0,0.0449,0.046,0.046,0.0471,0.0475,0.0468,0.0471,0.0467,0.0467,0.0466,0.0461,0.0458,0.0463,0.0469,0.0467,0.0491,0.0474,0.0508,0.0515,0.0521,0.0536,0.0543,0.0552,0.0453,0.0453,0.0453,0,0,0.0455,0.0459,0.0464,0.0474,0.0475,0.0498,0.0469,0.0481,0.0503,0.0466,0.0494,0.048,0.0472,0.0497,0.0505,0.0492,0.0535,0.0523,0.0529,0.0541,0.0546,0.0555,0.0564,0.0454,0.0454,0.0454,0,0,0.0482,0.0478,0.0501,0.0511,0.052,0.052,0.0526,0.0528,0.0532,0.0552,0.0533,0.054,0.0545,0.0552,0.0554,0.0598,0.0567,0.0593,0.0652,0.0658,0.0667,0.0674,0.0646,0.0651,0.0602,0.0602,0.0602,0,0.0492,0.0521,0.051,0.0539,0.0557,0.0535,0.0571,0.0574,0.0581,0.0598,0.057,0.0594,0.0576,0.0622,0.063,0.0616,0.0601,0.0623,0.0668,0.0675,0.0682,0.0652,0.0656,0.0606,0.0605,0.0605,0.0605,0,0.0541,0.0565,0.0581,0.0612,0.0629,0.0655,0.0662,0.0678,0.0674,0.0679,0.0712,0.0691,0.0711,0.07,0.0676,0.0721,0.0687,0.0672,0.065,0.0696,0.0661,0.0664,0.0611,0.061,0.0609,0.0608,0,0,0.0563,0.0609,0.0615,0.065,0.0674,0.0699,0.0737,0.0774,0.0814,0.0805,0.0863,0.0849,0.0835,0.0836,0.0811,0.0809,0.0819,0.0762,0.0761,0.0739,0.0811,0.0775,0.0774,0.0814,0.0815,0.0816,0.0761,0,0.0608,0.068,0.069,0.0764,0.0806,0.081,0.0854,0.0883,0.0895,0.0942,0.0926,0.0961,0.089,0.0906,0.0894,0.0851,0.0833,0.0834,0.0766,0.0763,0.0731,0.0779,0.0772,0.0723,0.0763,0.0764,0.0764,0,0.0658,0.0704,0.0782,0.0859,0.0879,0.0917,0.0993,0.1033,0.1078,0.109,0.1114,0.1099,0.111,0.1037,0.0983,0.0988,0.0905,0.085,0.0847,0.0796,0.0735,0.0687,0.0726,0.0668,0.0768,0.0767,0.0767,0,0.0693,0.0773,0.0841,0.0865,0.0941,0.0983,0.1027,0.1079,0.114,0.1193,0.1243,0.1233,0.1254,0.1166,0.1049,0.1021,0.0976,0.0924,0.0807,0.0802,0.0774,0.0765,0.0758,0.0876,0.0876,0.0877,0.0877,0,0.0746,0.0802,0.0864,0.0904,0.1002,0.1036,0.1141,0.1178,0.126,0.1363,0.1329,0.1404,0.1289,0.1249,0.1108,0.0979,0.1021,0.083,0.0801,0.0796,0.079,0.0719,0.0675,0.0874,0.0875,0.0875,0.0876,0,0.0779,0.0813,0.0901,0.0988,0.1021,0.1095,0.1219,0.1302,0.136,0.1496,0.1527,0.1549,0.1497,0.1355,0.1221,0.1072,0.0889,0.0871,0.0856,0.0826,0.0647,0.0607,0.054,0.0512,0.0732,0.0731,0.0731,0,0.0803,0.0849,0.0958,0.1021,0.1064,0.1173,0.1258,0.1344,0.1447,0.1595,0.1679,0.1674,0.1694,0.1474,0.1219,0.0973,0.0878,0.0787,0.0731,0.0656,0.059,0.0554,0.0534,0.0706,0.0705,0.0705,0.0704,0,0.0856,0.0887,0.0961,0.1086,0.1181,0.1301,0.1432,0.1529,0.1659,0.1777,0.1921,0.1946,0.175,0.1525,0.1186,0.1001,0.075,0.0762,0.0707,0.0596,0.0537,0.049,0.0698,0.0697,0.0698,0.0698,0.0699,0.0699,0.0893,0.095,0.1042,0.1163,0.1275,0.142,0.153,0.1684,0.1858,0.2044,0.2074,0.2111,0.1792,0.1338,0.1112,0.0695,0.0694,0.0556,0.0517,0.049,0.0466,0.0645,0.06,0.0601,0.0601,0.0601,0.0601,0,0.0937,0.1006,0.1119,0.1261,0.1385,0.1439,0.1643,0.1767,0.1976,0.2114,0.2228,0.2054,0.1693,0.1295,0.0743,0.05,0.0414,0.0379,0.0343,0.0337,0.0518,0.0521,0.0433,0.0433,0.0433,0.0433,0.0433,0.0433,0.0964,0.1063,0.112,0.1319,0.1425,0.1598,0.1712,0.1903,0.2036,0.2169,0.2153,0.213,0.1821,0.0977,0.0455,0.0341,0.0227,0.0162,0.0128,0.0264,0.0279,0.0292,0.0288,0.0153,0.0152,-0.0026,-0.0028,-0.0029]}],[{"header":{"parameterUnit":"m.s-1","parameterCategory":2,"la1":30.2991,"la2":30.254,"lo1":-89.0895,"lo2":-89.0444,"dy":0.0017,"dx":0.0017,"nx":28,"ny":28,"refTime":"2025-05-25T03:00:00:Z","depth":"2","parameterNumber":2,"parameterNumberName":"U-component_of_CURRENTS"},"data":[0,0,0,0,0,0,0,0,0,0,0,0,0,0,0,0,0,0,0,0,0,0,0,0,0,0,0,0,0,0,0,0,0,0,0,0,0,0,0,0,0,0,0,0,0,0,0,0,0,0,0,0,0,0,0,0,0,0,0.2641,0.2641,0,0.2617,0.2616,0.2616,0.2593,0.2593,0.2593,0.2593,0.2598,0.2598,0.2598,0,0,0,0,0,0,0,0,0,0,0,0,0,0.2657,0.2657,0.2641,0.2641,0.2641,0.2617,0.2616,0.2615,0.2593,0.2593,0.2593,0.2593,0.2598,0.2598,0.2598,0,0,0,0,0,0,0,0,0,0,0,0,0,0.2639,0.2657,0.2641,0.2631,0.263,0.2617,0.2616,0.2615,0.2593,0.2593,0.2593,0.2593,0.2598,0.2598,0.2598,0.2594,0,0,0.2598,0.2598,0,0,0,0,0,0,0,0,0.264,0.2638,0.2632,0.2631,0.263,0.2612,0.2624,0.2611,0.2593,0.2602,0.2593,0.2594,0.2608,0.2607,0.2596,0.2594,0.2595,0.2598,0.2598,0.2598,0.2598,0,0,0,0,0,0,0,0.2641,0.2639,0.2627,0.2632,0.2631,0.2624,0.2621,0.2621,0.2601,0.2601,0.2601,0.2605,0.2607,0.2596,0.2596,0.2595,0.2598,0.2598,0.2598,0.2598,0.2679,0.2681,0,0,0,0,0,0,0.2654,0.264,0.2628,0.2627,0.2641,0.2624,0.262,0.2614,0.2601,0.26,0.2605,0.2604,0.2595,0.2596,0.2596,0.2661,0.2598,0.2598,0.2598,0.2677,0.2679,0.2682,0,0,0,0,0,0,0.2654,0.2652,0.2629,0.2637,0.2634,0.2624,0.2617,0.2614,0.2614,0.2604,0.2603,0.2611,0.2596,0.2596,0.2623,0.2659,0.2598,0.2598,0.2674,0.2677,0.268,0.2747,0,0,0,0,0,0,0.2654,0.2652,0.2655,0.2638,0.2634,0.2639,0.2617,0.2613,0.2618,0.2617,0.2609,0.2608,0.2596,0.2623,0.2623,0.2658,0.2598,0.2671,0.2676,0.2679,0.2742,0.2752,0.2761,0,0,0,0,0,0.2655,0.2655,0.2655,0.2654,0.2637,0.264,0.2638,0.2628,0.2618,0.2626,0.2629,0.2609,0.2649,0.2624,0.2624,0.2659,0.2669,0.2674,0.2679,0.2738,0.275,0.276,0,0,0,0,0,0,0.2655,0.2653,0.2652,0.265,0.2656,0.2639,0.2643,0.2637,0.2641,0.2645,0.2628,0.2629,0.2664,0.2658,0.2631,0.2698,0.2659,0.2664,0.2704,0.2715,0.2725,0.2702,0.2598,0,0,0,0,0,0.266,0.2665,0.2663,0.2665,0.2669,0.2659,0.2659,0.2659,0.2659,0.266,0.2658,0.2667,0.268,0.2695,0.2699,0.2734,0.2736,0.2761,0.2771,0.2778,0.2762,0.282,0.2833,0.2697,0.2697,0.2697,0,0,0.2664,0.2662,0.2666,0.2667,0.2666,0.2671,0.2658,0.267,0.2684,0.2662,0.2684,0.2692,0.2695,0.2733,0.275,0.2736,0.2822,0.2784,0.2791,0.277,0.2826,0.2839,0.2851,0.2701,0.27,0.2699,0,0,0.267,0.267,0.2677,0.2683,0.2695,0.2693,0.2702,0.2704,0.2716,0.2743,0.2736,0.277,0.2783,0.2801,0.2809,0.2875,0.2862,0.2884,0.2919,0.2977,0.2988,0.2998,0.3028,0.304,0.2898,0.2898,0.2898,0,0.2676,0.2672,0.2682,0.2687,0.2694,0.2705,0.2714,0.2729,0.2744,0.2765,0.2764,0.2811,0.2815,0.2867,0.2886,0.2894,0.2912,0.2874,0.2988,0.2998,0.3006,0.3035,0.3047,0.2902,0.2901,0.2901,0.2901,0,0.2676,0.2682,0.2686,0.2696,0.2713,0.2723,0.275,0.2783,0.2802,0.2812,0.2874,0.2894,0.2929,0.2943,0.2926,0.2999,0.2987,0.2986,0.2955,0.3024,0.305,0.3062,0.2907,0.2906,0.2905,0.2904,0,0,0.2666,0.2683,0.2685,0.2694,0.2717,0.2731,0.278,0.2819,0.2854,0.2894,0.2944,0.2981,0.3002,0.3013,0.3027,0.3064,0.3144,0.3048,0.305,0.3069,0.3258,0.3122,0.3121,0.3168,0.317,0.3172,0.3255,0,0.266,0.267,0.2685,0.2706,0.2714,0.2754,0.279,0.2839,0.2888,0.2943,0.2995,0.3037,0.3031,0.3063,0.3109,0.3131,0.3175,0.312,0.3195,0.3196,0.306,0.313,0.2861,0.2901,0.3266,0.3268,0.3269,0,0.2644,0.2658,0.2672,0.2712,0.272,0.2739,0.2817,0.2864,0.2949,0.2995,0.3071,0.3094,0.317,0.3151,0.3251,0.3219,0.3239,0.3249,0.3254,0.3101,0.308,0.2891,0.2907,0.3288,0.3286,0.3285,0.3284,0,0.262,0.2646,0.2658,0.2666,0.2713,0.2746,0.2791,0.2875,0.2928,0.3041,0.3092,0.3176,0.3246,0.3288,0.3313,0.3297,0.3396,0.3391,0.3289,0.328,0.3047,0.3013,0.3454,0.3454,0.3454,0.3454,0.3453,0,0.2592,0.2605,0.2645,0.2652,0.2685,0.2737,0.2799,0.287,0.2966,0.303,0.3125,0.3187,0.3283,0.3342,0.3347,0.3348,0.3446,0.3291,0.3295,0.3063,0.3031,0.3355,0.3342,0.3457,0.3456,0.3455,0.3455,0,0.2553,0.2577,0.2596,0.2649,0.2669,0.2704,0.2796,0.2839,0.2957,0.3059,0.3096,0.3225,0.3302,0.336,0.3432,0.3395,0.3397,0.337,0.3072,0.3037,0.3236,0.3226,0.3277,0.3273,0.3269,0.3266,0.3264,0,0.253,0.2526,0.2583,0.2597,0.2618,0.2678,0.271,0.2826,0.2874,0.3061,0.3088,0.321,0.3243,0.3301,0.3245,0.323,0.3337,0.2975,0.2882,0.322,0.322,0.3215,0.321,0.2619,0.2612,0.2606,0.2601,0,0.2483,0.2498,0.2518,0.2541,0.2572,0.2613,0.2674,0.2697,0.2842,0.2909,0.2987,0.3027,0.3098,0.2938,0.2929,0.2886,0.2948,0.2846,0.3309,0.2688,0.2601,0.2601,0.2618,0.2546,0.2552,0.2556,0.2559,0.2561,0.2446,0.244,0.2456,0.2466,0.2508,0.252,0.25,0.2556,0.2592,0.265,0.278,0.2757,0.2774,0.2594,0.2492,0.2416,0.2625,0.2508,0.2527,0.2553,0.2444,0.2354,0.2232,0.2235,0.2238,0.2241,0.2243,0,0.2382,0.2372,0.2375,0.2377,0.2362,0.2432,0.244,0.2375,0.2338,0.2427,0.2448,0.2233,0.2108,0.2136,0.1914,0.1881,0.1873,0.1817,0.1789,0.1844,0.1893,0.1751,0.1355,0.1352,0.135,0.1348,0,0,0.235,0.2314,0.2296,0.2223,0.2227,0.2171,0.2144,0.2058,0.2051,0.1973,0.1935,0.2069,0.2096,0.1727,0.1646,0.1465,0.1657,0.1406,0.212,0.2146,0.2192,0.2289,0.2131,0,0,0,0,0]},{"header":{"parameterUnit":"m.s-1","parameterCategory":2,"la1":30.2991,"la2":30.254,"lo1":-89.0895,"lo2":-89.0444,"dy":0.0017,"dx":0.0017,"nx":28,"ny":28,"refTime":"2025-05-25T03:00:00:Z","depth":"2","parameterNumber":3,"parameterNumberName":"V-component_of_CURRENTS"},"data":[0,0,0,0,0,0,0,0,0,0,0,0,0,0,0,0,0,0,0,0,0,0,0,0,0,0,0,0,0,0,0,0,0,0,0,0,0,0,0,0,0,0,0,0,0,0,0,0,0,0,0,0,0,0,0,0,0,0,0.0261,0.0261,0,0.0262,0.0262,0.0261,0.0257,0.0257,0.0257,0.0257,0.0249,0.0249,0.0249,0,0,0,0,0,0,0,0,0,0,0,0,0,0.0236,0.0236,0.0261,0.0261,0.0262,0.0262,0.0262,0.0261,0.0257,0.0257,0.0257,0.0257,0.0249,0.0249,0.0249,0,0,0,0,0,0,0,0,0,0,0,0,0,0.0241,0.0236,0.0261,0.026,0.026,0.0262,0.0261,0.0261,0.0257,0.0257,0.0257,0.0257,0.0249,0.0249,0.0249,0.0246,0,0,0.0248,0.0248,0,0,0,0,0,0,0,0,0.0241,0.0242,0.026,0.0261,0.0261,0.0261,0.025,0.0256,0.0257,0.0257,0.0257,0.0257,0.0253,0.0253,0.0251,0.0246,0.0246,0.0248,0.0248,0.0247,0.0247,0,0,0,0,0,0,0,0.0241,0.0242,0.026,0.0261,0.0261,0.0253,0.0254,0.0251,0.0254,0.0257,0.0257,0.0259,0.0253,0.0251,0.025,0.0246,0.0248,0.0248,0.0247,0.0247,0.0256,0.0256,0,0,0,0,0,0,0.0245,0.0242,0.026,0.026,0.0252,0.0254,0.0254,0.0259,0.0254,0.0253,0.0259,0.0259,0.0252,0.0251,0.025,0.0272,0.0247,0.0247,0.0247,0.0255,0.0256,0.0256,0,0,0,0,0,0,0.0244,0.0246,0.026,0.0252,0.0253,0.0254,0.026,0.0259,0.0261,0.0256,0.0255,0.0262,0.0252,0.0251,0.0258,0.0271,0.0247,0.0247,0.0255,0.0256,0.0256,0.03,0,0,0,0,0,0,0.0243,0.0246,0.025,0.0252,0.0254,0.0267,0.026,0.0259,0.0263,0.0263,0.0258,0.0257,0.0251,0.0259,0.0258,0.027,0.0246,0.0254,0.0255,0.0256,0.0298,0.0302,0.0305,0,0,0,0,0,0.0243,0.0252,0.025,0.0252,0.0259,0.0267,0.0267,0.0267,0.0264,0.0268,0.0268,0.0258,0.0263,0.0259,0.0258,0.027,0.0254,0.0255,0.0256,0.0296,0.0301,0.0305,0,0,0,0,0,0,0.0243,0.0253,0.0251,0.0262,0.0266,0.0267,0.0273,0.027,0.0272,0.0274,0.0265,0.0265,0.0274,0.0265,0.0261,0.0274,0.0256,0.0256,0.0287,0.0291,0.0295,0.0305,0.0246,0,0,0,0,0,0.0244,0.0255,0.026,0.0269,0.0273,0.0272,0.0275,0.0275,0.0278,0.0279,0.0277,0.0275,0.0275,0.0279,0.0275,0.0285,0.027,0.0291,0.0294,0.0298,0.0305,0.0296,0.0299,0.0259,0.0259,0.0259,0,0,0.0248,0.0254,0.026,0.027,0.0273,0.0289,0.0274,0.0283,0.03,0.0278,0.0299,0.0287,0.028,0.0291,0.0294,0.0288,0.0299,0.0299,0.0302,0.0307,0.0297,0.0301,0.0304,0.026,0.026,0.026,0,0,0.0265,0.0265,0.0283,0.0289,0.0298,0.03,0.0305,0.031,0.0316,0.033,0.0319,0.0318,0.032,0.0321,0.032,0.0342,0.0317,0.0336,0.0368,0.0359,0.0363,0.0365,0.0345,0.0346,0.0341,0.0341,0.0341,0,0.0269,0.0293,0.0288,0.0307,0.0321,0.0309,0.0335,0.0339,0.0346,0.0357,0.0344,0.035,0.0337,0.0358,0.0361,0.0352,0.0336,0.0353,0.0365,0.0367,0.0369,0.0348,0.0348,0.0343,0.0343,0.0343,0.0343,0,0.0303,0.0321,0.0333,0.0356,0.0367,0.0385,0.0393,0.0406,0.0408,0.0409,0.0425,0.0408,0.0416,0.0404,0.0388,0.04,0.0379,0.0368,0.0355,0.0376,0.0352,0.0351,0.0347,0.0346,0.0345,0.0345,0,0,0.032,0.0353,0.0357,0.0383,0.0397,0.0416,0.0443,0.047,0.0502,0.0487,0.0523,0.0504,0.0488,0.0486,0.0465,0.0448,0.0438,0.0414,0.0413,0.0397,0.0408,0.0372,0.0368,0.0427,0.0427,0.0427,0.0383,0,0.0353,0.0405,0.0409,0.0461,0.0493,0.0494,0.0526,0.0543,0.0556,0.0584,0.0557,0.0573,0.0524,0.0529,0.0507,0.0464,0.044,0.0451,0.0388,0.0386,0.0354,0.0367,0.0384,0.0345,0.0382,0.0382,0.0382,0,0.0388,0.0424,0.048,0.0533,0.0547,0.0572,0.0632,0.0663,0.0685,0.0694,0.0695,0.0668,0.0652,0.0601,0.0538,0.0547,0.048,0.0432,0.043,0.0383,0.0349,0.033,0.0342,0.038,0.0381,0.0381,0.0381,0,0.042,0.0475,0.0527,0.0542,0.0595,0.0625,0.066,0.0695,0.0744,0.0767,0.0798,0.0759,0.0764,0.0676,0.057,0.0556,0.0487,0.0462,0.0363,0.0359,0.0355,0.0351,0.0406,0.0406,0.0406,0.0406,0.0406,0,0.0459,0.0501,0.0547,0.0579,0.0654,0.0673,0.0758,0.0786,0.0839,0.0915,0.0862,0.0901,0.0781,0.0723,0.0604,0.0488,0.0517,0.0371,0.0349,0.0369,0.0366,0.0384,0.0382,0.0404,0.0405,0.0405,0.0405,0,0.0486,0.0512,0.058,0.0644,0.0671,0.0731,0.0828,0.0894,0.0933,0.1034,0.1043,0.1017,0.0945,0.0805,0.0669,0.0552,0.0426,0.0369,0.0391,0.0372,0.0292,0.0292,0.0263,0.0262,0.0261,0.0259,0.0259,0,0.0507,0.0541,0.0629,0.068,0.0712,0.0803,0.0873,0.0939,0.1017,0.1112,0.1163,0.1116,0.1096,0.0873,0.0662,0.0452,0.0416,0.0308,0.028,0.0297,0.0279,0.0282,0.0285,0.0289,0.0289,0.0288,0.0288,0,0.0547,0.0571,0.0632,0.0733,0.0813,0.0919,0.1022,0.1094,0.1195,0.1264,0.1339,0.1322,0.1137,0.0927,0.0632,0.0482,0.0341,0.029,0.032,0.0319,0.0317,0.0301,0.0303,0.0284,0.0284,0.0284,0.0285,0.0285,0.0577,0.0622,0.0696,0.0795,0.0895,0.1021,0.1109,0.1221,0.1342,0.1453,0.1446,0.1424,0.1204,0.0822,0.0578,0.0315,0.0328,0.0215,0.0219,0.0223,0.023,0.0225,0.0175,0.0175,0.0175,0.0175,0.0175,0,0.0616,0.0666,0.0753,0.0875,0.0984,0.1038,0.12,0.1279,0.1416,0.1511,0.1556,0.1326,0.1103,0.0843,0.0468,0.0237,0.0226,0.0143,0.019,0.0195,0.02,0.0208,0.0146,0.0146,0.0145,0.0144,0,0,0.0638,0.0716,0.0757,0.0924,0.1017,0.1169,0.1263,0.1366,0.1451,0.1515,0.1509,0.1483,0.1179,0.0894,0.0592,0.0376,0.0334,0.032,0.0367,0.0465,0.0472,0.0263,0.0284,0,0,0,0,0]}],[{"header":{"parameterUnit":"m.s-1","parameterCategory":2,"la1":30.2991,"la2":30.254,"lo1":-89.0895,"lo2":-89.0444,"dy":0.0017,"dx":0.0017,"nx":28,"ny":28,"refTime":"2025-05-25T03:00:00:Z","depth":"4","parameterNumber":2,"parameterNumberName":"U-component_of_CURRENTS"},"data":[0,0,0,0,0,0,0,0,0,0,0,0,0,0,0,0,0,0,0,0,0,0,0,0,0,0,0,0,0,0,0,0,0,0,0,0,0,0,0,0,0,0,0,0,0,0,0,0,0,0,0,0,0,0,0,0,0,0,0.1611,0.1612,0,0.1661,0.1662,0.1662,0.1712,0.1713,0.1714,0.1715,0.174,0.174,0.174,0,0,0,0,0,0,0,0,0,0,0,0,0,0.154,0.1541,0.1611,0.1612,0.1613,0.1661,0.1662,0.1662,0.1712,0.1713,0.1714,0.1715,0.174,0.174,0.174,0,0,0,0,0,0,0,0,0,0,0,0,0,0.1576,0.1542,0.1611,0.1646,0.165,0.1661,0.1662,0.1662,0.1712,0.1713,0.1715,0.1716,0.174,0.174,0.174,0.1709,0,0,0.1739,0.1739,0,0,0,0,0,0,0,0,0.1574,0.1578,0.164,0.1643,0.1648,0.1685,0.1647,0.1678,0.1711,0.1685,0.1715,0.1717,0.172,0.1722,0.1724,0.171,0.1711,0.1739,0.1739,0.1738,0.1738,0,0,0,0,0,0,0,0.1571,0.1576,0.1627,0.1641,0.1646,0.1654,0.166,0.1652,0.1691,0.1687,0.1692,0.1702,0.1722,0.1724,0.1725,0.1712,0.1739,0.1738,0.1738,0.1738,0.1789,0.1791,0,0,0,0,0,0,0.1571,0.1574,0.1626,0.1629,0.1617,0.1654,0.1661,0.1669,0.1692,0.1698,0.1701,0.1704,0.1724,0.1725,0.1726,0.1787,0.1738,0.1738,0.1738,0.1788,0.179,0.1791,0,0,0,0,0,0,0.1569,0.1575,0.1624,0.1605,0.1613,0.1654,0.1662,0.1669,0.1707,0.1703,0.1708,0.1737,0.1725,0.1726,0.1754,0.1784,0.1738,0.1738,0.1786,0.1788,0.179,0.1847,0,0,0,0,0,0,0.1567,0.1574,0.1593,0.1605,0.1614,0.165,0.1661,0.1669,0.1711,0.1717,0.1734,0.1736,0.1726,0.1755,0.1754,0.1783,0.1737,0.1784,0.1787,0.179,0.1843,0.185,0.1857,0,0,0,0,0,0.1564,0.1579,0.1594,0.1601,0.1635,0.165,0.1656,0.1687,0.1712,0.1727,0.1749,0.1738,0.1773,0.1756,0.1754,0.1784,0.1782,0.1786,0.1789,0.1839,0.1849,0.1857,0,0,0,0,0,0,0.1562,0.1587,0.1603,0.1627,0.1648,0.1661,0.1687,0.1705,0.1734,0.1753,0.1749,0.1752,0.1793,0.1779,0.176,0.181,0.1779,0.1782,0.1817,0.1826,0.1833,0.1838,0.1737,0,0,0,0,0,0.1569,0.159,0.1609,0.1634,0.1649,0.1674,0.1693,0.1712,0.1733,0.175,0.1764,0.1782,0.1798,0.1807,0.1816,0.1832,0.1832,0.1854,0.1861,0.1867,0.1872,0.1912,0.1923,0.1803,0.1803,0.1803,0,0,0.1576,0.1595,0.1608,0.1636,0.1659,0.1677,0.1689,0.1726,0.1748,0.1745,0.1792,0.181,0.1811,0.184,0.1856,0.1836,0.1901,0.1872,0.1877,0.1878,0.1917,0.1929,0.1939,0.1805,0.1805,0.1804,0,0,0.1587,0.1619,0.1636,0.1654,0.1693,0.1705,0.1723,0.1754,0.1782,0.1819,0.1832,0.1869,0.1888,0.1896,0.1901,0.195,0.1943,0.1962,0.1995,0.2034,0.2044,0.2053,0.2061,0.2071,0.1959,0.1959,0.196,0,0.16,0.1619,0.1644,0.1663,0.1684,0.1721,0.1739,0.1765,0.1804,0.1833,0.1847,0.1913,0.1913,0.1949,0.1972,0.1966,0.1982,0.1959,0.2044,0.2052,0.2061,0.2067,0.2076,0.1963,0.1962,0.1962,0.1962,0,0.1607,0.1637,0.1653,0.1686,0.171,0.1737,0.1769,0.1808,0.1854,0.1883,0.1953,0.1968,0.2009,0.2017,0.2009,0.2069,0.2059,0.2053,0.202,0.2076,0.2079,0.2088,0.1967,0.1966,0.1965,0.1964,0,0,0.1597,0.1647,0.1657,0.1676,0.1727,0.1741,0.1792,0.184,0.1887,0.1943,0.2001,0.2044,0.208,0.2088,0.2093,0.2121,0.2186,0.2118,0.2119,0.2122,0.2266,0.2106,0.21,0.2206,0.2209,0.221,0.2241,0,0.1601,0.1632,0.1659,0.1697,0.1714,0.1765,0.1806,0.186,0.192,0.1985,0.2033,0.2093,0.2098,0.2132,0.2168,0.2189,0.2215,0.2177,0.2214,0.2214,0.2062,0.2106,0.2217,0.2248,0.2249,0.2251,0.2252,0,0.1591,0.1616,0.1652,0.1703,0.1719,0.1753,0.1833,0.1876,0.1972,0.2025,0.2106,0.2148,0.2214,0.2205,0.2283,0.2267,0.2276,0.2281,0.2283,0.2119,0.207,0.2182,0.2268,0.2266,0.2265,0.2264,0.2263,0,0.1552,0.1607,0.1637,0.1655,0.1721,0.1762,0.1809,0.1902,0.1951,0.2064,0.212,0.2207,0.2265,0.2305,0.2334,0.2324,0.24,0.2381,0.224,0.2228,0.2338,0.2328,0.2429,0.2429,0.2428,0.2428,0.2428,0,0.1523,0.155,0.163,0.1643,0.1693,0.1752,0.1824,0.1889,0.199,0.2047,0.2149,0.2201,0.2302,0.2353,0.236,0.2325,0.2428,0.2247,0.2229,0.2359,0.2351,0.2343,0.2333,0.2429,0.2429,0.2429,0.2429,0,0.1467,0.152,0.1557,0.1642,0.1675,0.1715,0.1822,0.1863,0.1982,0.2059,0.21,0.2228,0.2293,0.2352,0.2412,0.2342,0.2326,0.2285,0.2414,0.2402,0.2118,0.2111,0.2121,0.2116,0.2111,0.2107,0.2104,0,0.1433,0.1452,0.1548,0.157,0.1615,0.1688,0.173,0.185,0.1892,0.2051,0.2068,0.2186,0.225,0.2209,0.2284,0.2272,0.2246,0.2211,0.2163,0.2107,0.209,0.2089,0.2088,0.2097,0.2096,0.2095,0.2094,0,0.1368,0.1424,0.1453,0.1505,0.1555,0.1595,0.1669,0.169,0.182,0.1946,0.1986,0.2012,0.2077,0.2113,0.2121,0.2111,0.2217,0.2163,0.2172,0.2126,0.2079,0.2065,0.2069,0.2078,0.208,0.2082,0.2083,0,0.1327,0.1334,0.1384,0.1414,0.1467,0.1473,0.153,0.157,0.1632,0.1803,0.1815,0.1938,0.2062,0.2029,0.2038,0.2014,0.1976,0.1891,0.1913,0.1931,0.1853,0.1763,0.1651,0,0,0,0,0,0.1275,0.1264,0.1281,0.1297,0.1341,0.1379,0.1465,0.1525,0.166,0.1637,0.1719,0.1765,0.1787,0.1855,0.179,0.1943,0.1979,0.1856,0.1893,0.1992,0.201,0.1933,0,0,0,0,0,0,0.1235,0.1251,0.1245,0.1191,0.1185,0.1221,0.1277,0.1369,0.1364,0.1513,0.1542,0.1646,0.1703,0.181,0.1757,0.1772,0.1751,0.1933,0.1927,0.1981,0.1998,0.2012,0.194,0,0,0,0,0]},{"header":{"parameterUnit":"m.s-1","parameterCategory":2,"la1":30.2991,"la2":30.254,"lo1":-89.0895,"lo2":-89.0444,"dy":0.0017,"dx":0.0017,"nx":28,"ny":28,"refTime":"2025-05-25T03:00:00:Z","depth":"4","parameterNumber":3,"parameterNumberName":"V-component_of_CURRENTS"},"data":[0,0,0,0,0,0,0,0,0,0,0,0,0,0,0,0,0,0,0,0,0,0,0,0,0,0,0,0,0,0,0,0,0,0,0,0,0,0,0,0,0,0,0,0,0,0,0,0,0,0,0,0,0,0,0,0,0,0,0.0182,0.0182,0,0.0189,0.0189,0.0189,0.0195,0.0195,0.0195,0.0195,0.02,0.02,0.02,0,0,0,0,0,0,0,0,0,0,0,0,0,0.0161,0.0161,0.0182,0.0182,0.0182,0.0189,0.0189,0.0189,0.0195,0.0195,0.0195,0.0196,0.02,0.02,0.02,0,0,0,0,0,0,0,0,0,0,0,0,0,0.0168,0.0161,0.0182,0.0187,0.0187,0.0189,0.0189,0.0189,0.0195,0.0195,0.0195,0.0196,0.02,0.02,0.02,0.0196,0,0,0.02,0.02,0,0,0,0,0,0,0,0,0.0168,0.0169,0.0186,0.0186,0.0187,0.0192,0.0183,0.0191,0.0195,0.0191,0.0195,0.0196,0.0198,0.0198,0.0198,0.0196,0.0196,0.02,0.02,0.02,0.02,0,0,0,0,0,0,0,0.0167,0.0169,0.0184,0.0186,0.0187,0.0184,0.0185,0.0185,0.0192,0.0192,0.0192,0.0194,0.0198,0.0198,0.0198,0.0196,0.02,0.02,0.02,0.02,0.0205,0.0205,0,0,0,0,0,0,0.0169,0.0168,0.0184,0.0184,0.0179,0.0184,0.0186,0.019,0.0193,0.0193,0.0194,0.0194,0.0197,0.0198,0.0198,0.0212,0.02,0.02,0.02,0.0205,0.0205,0.0205,0,0,0,0,0,0,0.0168,0.017,0.0183,0.0177,0.0179,0.0185,0.0189,0.019,0.0195,0.0195,0.0195,0.0199,0.0198,0.0198,0.0206,0.0211,0.02,0.02,0.0205,0.0205,0.0205,0.0228,0,0,0,0,0,0,0.0168,0.017,0.0174,0.0177,0.0179,0.0189,0.0189,0.019,0.0196,0.0197,0.0199,0.02,0.0198,0.0206,0.0206,0.0211,0.02,0.0205,0.0205,0.0205,0.0227,0.0229,0.023,0,0,0,0,0,0.0167,0.0174,0.0174,0.0176,0.0184,0.0189,0.019,0.0194,0.0196,0.02,0.0204,0.02,0.0208,0.0207,0.0207,0.0212,0.0204,0.0205,0.0205,0.0226,0.0228,0.023,0,0,0,0,0,0,0.0166,0.0175,0.0175,0.0184,0.0188,0.0191,0.0197,0.0197,0.0203,0.0206,0.0205,0.0205,0.0213,0.0209,0.0208,0.0213,0.0204,0.0204,0.022,0.0222,0.0224,0.0233,0.02,0,0,0,0,0,0.0167,0.0176,0.018,0.0187,0.0191,0.0194,0.0197,0.0199,0.0204,0.0207,0.021,0.0211,0.0213,0.0215,0.0215,0.022,0.0204,0.0221,0.0223,0.0225,0.0232,0.021,0.021,0.0206,0.0206,0.0206,0,0,0.0169,0.0175,0.018,0.0188,0.0192,0.0203,0.0196,0.0204,0.0216,0.0206,0.0225,0.0219,0.0215,0.0222,0.0224,0.022,0.0216,0.0225,0.0227,0.0233,0.021,0.0211,0.0211,0.0206,0.0206,0.0206,0,0,0.018,0.0183,0.0195,0.0201,0.0209,0.0211,0.0215,0.0221,0.0227,0.024,0.0235,0.0233,0.0239,0.0236,0.0235,0.0245,0.0225,0.0243,0.0261,0.024,0.024,0.024,0.0212,0.021,0.0244,0.0244,0.0244,0,0.0183,0.02,0.0198,0.0212,0.0224,0.0218,0.0236,0.0239,0.0247,0.0256,0.025,0.0253,0.0247,0.0253,0.0256,0.025,0.0232,0.0254,0.0242,0.0242,0.0241,0.0213,0.021,0.0245,0.0245,0.0245,0.0245,0,0.0204,0.0219,0.0227,0.0245,0.0254,0.0267,0.0274,0.0283,0.0287,0.029,0.0297,0.0283,0.0287,0.0278,0.0272,0.0268,0.0254,0.0246,0.0238,0.0243,0.0213,0.0209,0.0247,0.0247,0.0246,0.0246,0,0,0.0212,0.0238,0.0242,0.0262,0.0275,0.0289,0.0306,0.0324,0.0346,0.0335,0.0354,0.0341,0.0329,0.0326,0.0309,0.0288,0.0263,0.0269,0.0267,0.0243,0.021,0.0196,0.019,0.0253,0.0253,0.0252,0.0187,0,0.0233,0.027,0.0275,0.0314,0.0336,0.034,0.0363,0.0375,0.0382,0.0397,0.037,0.038,0.0348,0.0351,0.0323,0.0286,0.0256,0.0281,0.0208,0.0206,0.0193,0.0187,0.0251,0.0184,0.0183,0.0183,0.0182,0,0.0254,0.028,0.0321,0.0363,0.0374,0.0395,0.0435,0.0457,0.0465,0.047,0.046,0.044,0.0413,0.0383,0.0309,0.0328,0.0272,0.0232,0.0228,0.0207,0.0185,0.0179,0.0175,0.0176,0.0176,0.0177,0.0177,0,0.0269,0.0312,0.0351,0.0365,0.0407,0.0431,0.0457,0.048,0.0513,0.0518,0.0531,0.0489,0.0479,0.0403,0.0317,0.0315,0.0227,0.0214,0.0143,0.0141,0.0163,0.0164,0.0154,0.0154,0.0154,0.0154,0.0154,0,0.0291,0.0323,0.0366,0.0389,0.0448,0.0465,0.0526,0.0544,0.0575,0.0617,0.0573,0.058,0.0484,0.0422,0.0331,0.0226,0.0235,0.0145,0.0125,0.0173,0.0176,0.016,0.0161,0.0152,0.0152,0.0153,0.0153,0,0.0301,0.0326,0.0377,0.0432,0.0457,0.0502,0.0579,0.0623,0.0642,0.0691,0.0694,0.0652,0.0574,0.0462,0.0342,0.0256,0.0151,0.0107,0.0164,0.0148,0.0072,0.0076,0.0025,0.0024,0.0023,0.0023,0.0022,0,0.031,0.0337,0.0412,0.0453,0.0482,0.0554,0.0608,0.0656,0.0704,0.0734,0.0756,0.0697,0.0651,0.0467,0.0343,0.0162,0.0133,0.0067,0.0069,0.0075,0.006,0.0065,0.007,0.0021,0.0021,0.002,0.002,0,0.0328,0.0354,0.04,0.0483,0.0548,0.0627,0.0704,0.0741,0.0798,0.0813,0.0807,0.0714,0.0622,0.0474,0.0333,0.0201,0.0105,0.0057,0.0058,0.006,0.0069,0.0056,0.0061,0.0017,0.0018,0.0018,0.0018,0,0.0344,0.0376,0.0436,0.0512,0.0594,0.0674,0.0717,0.0773,0.0821,0.0849,0.0845,0.0742,0.0691,0.0494,0.0364,0.0234,0.0197,0.0141,0.0137,0.0139,0.0187,0.0217,0.0194,0,0,0,0,0,0.0358,0.0395,0.0461,0.0544,0.0625,0.0677,0.077,0.0808,0.0857,0.0861,0.0857,0.077,0.0586,0.0507,0.0375,0.0335,0.0165,0.0173,0.0096,0.0001,0.0004,0.004,0,0,0,0,0,0,0.0367,0.0425,0.0457,0.0556,0.0615,0.0713,0.0774,0.0812,0.0816,0.0839,0.0747,0.0716,0.054,0.066,0.0365,0.0327,0.0254,0.0095,0.0092,-0.0001,0.0002,0.0005,0.0043,0,0,0,0,0]}]]